TimeCST,TemperatureF,Dew PointF,Humidity,Sea Level PressureIn,VisibilityMPH,Wind Direction,Wind SpeedMPH,Gust SpeedMPH,PrecipitationIn,Events,Conditions,WindDirDegrees,DateUTC
12:53 AM,57.9,53.1,84,30.08,10.0,NE,3.5,-,N/A,,Clear,40,2012-12-06 06:53:00
1:53 AM,53.1,50.0,89,30.07,10.0,ENE,3.5,-,N/A,,Clear,70,2012-12-06 07:53:00
2:53 AM,52.0,50.0,93,30.08,9.0,Calm,Calm,-,N/A,,Clear,0,2012-12-06 08:53:00
3:53 AM,52.0,50.0,93,30.08,2.5,Calm,Calm,-,N/A,,Partly Cloudy,0,2012-12-06 09:53:00
4:06 AM,50.0,48.2,94,30.08,1.0,Calm,Calm,-,N/A,,Partly Cloudy,0,2012-12-06 10:06:00
4:13 AM,50.0,48.2,94,30.08,0.5,Calm,Calm,-,N/A,Fog,Fog,0,2012-12-06 10:13:00
4:20 AM,51.8,48.2,88,30.08,0.2,Calm,Calm,-,N/A,Fog,Fog,0,2012-12-06 10:20:00
4:31 AM,51.8,48.2,88,30.08,0.5,Calm,Calm,-,N/A,Fog,Fog,0,2012-12-06 10:31:00
4:51 AM,50.0,46.4,87,30.08,1.8,NNE,3.5,-,N/A,,Clear,20,2012-12-06 10:51:00
4:53 AM,50.0,46.9,89,30.08,6.0,NNE,3.5,-,N/A,,Clear,20,2012-12-06 10:53:00
5:53 AM,48.9,46.9,93,30.09,4.0,ENE,3.5,-,N/A,,Partly Cloudy,70,2012-12-06 11:53:00
6:03 AM,48.2,46.4,93,30.09,1.5,ENE,5.8,-,N/A,,Partly Cloudy,70,2012-12-06 12:03:00
6:10 AM,48.2,46.4,93,30.09,4.0,ENE,5.8,-,N/A,,Partly Cloudy,70,2012-12-06 12:10:00
6:53 AM,50.0,48.0,93,30.09,6.0,ENE,4.6,-,N/A,,Partly Cloudy,70,2012-12-06 12:53:00
7:53 AM,55.9,54.0,93,30.10,8.0,East,4.6,-,N/A,,Clear,90,2012-12-06 13:53:00
8:53 AM,63.0,54.0,72,30.11,10.0,East,5.8,-,N/A,,Clear,80,2012-12-06 14:53:00
9:53 AM,68.0,55.0,63,30.10,10.0,ESE,5.8,-,N/A,,Clear,110,2012-12-06 15:53:00
10:53 AM,73.0,55.0,53,30.07,10.0,Variable,4.6,-,N/A,,Clear,0,2012-12-06 16:53:00
11:53 AM,75.9,53.1,45,30.04,10.0,East,8.1,-,N/A,,Scattered Clouds,90,2012-12-06 17:53:00
12:53 PM,75.0,53.1,46,30.01,10.0,ESE,8.1,-,N/A,,Mostly Cloudy,120,2012-12-06 18:53:00
1:53 PM,75.0,51.1,43,30.01,10.0,ESE,8.1,-,N/A,,Mostly Cloudy,120,2012-12-06 19:53:00
2:53 PM,75.0,50.0,41,29.99,10.0,East,6.9,-,N/A,,Scattered Clouds,100,2012-12-06 20:53:00
3:53 PM,73.9,50.0,43,30.00,10.0,ESE,9.2,-,N/A,,Scattered Clouds,110,2012-12-06 21:53:00
4:53 PM,68.0,50.0,52,30.00,10.0,East,9.2,-,N/A,,Clear,100,2012-12-06 22:53:00
5:53 PM,66.0,53.1,63,30.01,10.0,East,11.5,-,N/A,,Clear,100,2012-12-06 23:53:00
6:53 PM,64.0,55.0,73,30.03,10.0,East,10.4,-,N/A,,Clear,90,2012-12-07 00:53:00
7:53 PM,62.1,55.0,78,30.04,10.0,East,8.1,-,N/A,,Clear,90,2012-12-07 01:53:00
8:53 PM,61.0,54.0,78,30.05,10.0,East,9.2,-,N/A,,Clear,90,2012-12-07 02:53:00
9:53 PM,59.0,54.0,83,30.05,10.0,East,8.1,-,N/A,,Clear,90,2012-12-07 03:53:00
10:53 PM,57.9,53.1,84,30.04,10.0,East,8.1,-,N/A,,Clear,80,2012-12-07 04:53:00
11:53 PM,57.0,53.1,87,30.04,10.0,East,4.6,-,N/A,,Clear,80,2012-12-07 05:53:00